Tracking 31011 objects as of 12-Jul-2025
HD Live streaming from Space Station
objects crossing your sky now

DELTA 1 DEB *

Track DELTA 1 DEB * now!
10-day predictions


NORAD ID: 8791
Int'l Code: 1966-087F
Perigee: 1,305.2 km
Apogee: 1,524.1 km
Inclination: 101.6 °
Period: 113.9 minutes
Semi major axis: 7785 km
RCS: 0.0151 m2 (small)
Launch date: October 2, 1966
Source: United States (US)
Launch site: AIR FORCE WESTERN TEST RANGE (AFWTR)

Note: This is SATELLITE DEBRIS
Your satellite tracking list
Your tracking list is empty




NASA's NSSDC Master Catalog

Two Line Element Set (TLE):
1 08791U 66087F   25186.90687998  .00000325  00000-0  19499-2 0  9994
2 08791 101.6047 162.7677 0140568 164.2245 226.1152 12.63753192700667
Source of the keplerian elements: AFSPC